Regional Weather Roundup
Issued by NWS

Home | Current Version | Previous Version | Text Only | Print | Product List | Glossary Off
Versions: 1 2 3 4 5 6 7 8 9 10 11 12 13 14 15 16 17 18 19 20 21 22 23 24 25 26 27 28 29 30 31 32 33 34 35 36 37 38 39 40 41 42 43 44 45 46 47 48 49 50

000
ASUS43 KOAX 271902
RWRNE

WEATHER ROUNDUP FOR NEBRASKA
NATIONAL WEATHER SERVICE OMAHA NE
200 PM CDT TUE SEP 27 2016

NOTES: SATELLITE DATA IS BEING USED TO AUGMENT CLOUD COVER ABOVE
       12000 FEET.
       "FAIR" INDICATES FEW OR NO CLOUDS BELOW 12,000 FEET WITH NO
       SIGNIFICANT WEATHER AND/OR OBSTRUCTIONS TO VISIBILITY.

  * THESE STATIONS DO NOT REPORT WEATHER SUCH AS RAIN...SNOW OR FOG.

NEZ001>004-019>022-054>056-272000-
NEBRASKA PANHANDLE

CITY           SKY/WX    TMP DP  RH WIND       PRES   REMARKS
SCOTTSBLUFF    SUNNY     78  43  28 W6        30.11F
ALLIANCE       SUNNY     81  36  19 NW10      30.08F
CHADRON        SUNNY     80  42  25 W13       30.04F
KIMBALL        SUNNY     77  42  27 CALM      30.16F
SIDNEY         SUNNY     80  39  23 NW8       30.13F
$$

NEZ057>060-069>072-079>082-272000-
SOUTHWEST NEBRASKA

CITY           SKY/WX    TMP DP  RH WIND       PRES   REMARKS
NORTH PLATTE   SUNNY     81  46  29 W13       30.03F
IMPERIAL       SUNNY     80  38  22 SW7       30.08F
LEXINGTON      SUNNY     79  44  28 NW12      30.02F
MCCOOK         SUNNY     80  45  28 W10       30.05F
OGALLALA       SUNNY     82  42  23 SW12G17   30.06F
$$

NEZ005>010-023>029-035>040-094-272000-
NORTH CENTRAL NEBRASKA

CITY           SKY/WX    TMP DP  RH WIND       PRES   REMARKS
VALENTINE      SUNNY     80  42  25 NW15G24   29.99F
AINSWORTH      SUNNY     77  45  32 W10G18    29.99F
BROKEN BOW     SUNNY     80  44  27 W12       30.00F
O`NEILL        SUNNY     77  38  24 NW13G18   29.98F
ORD            SUNNY     78  43  28 NW8G16    29.97F
THEDFORD       SUNNY     81  46  29 W16       30.02F
$$

NEZ041-046>049-061>064-073>077-083>087-272000-
SOUTH CENTRAL NEBRASKA

CITY           SKY/WX    TMP DP  RH WIND       PRES   REMARKS
GRAND ISLAND   SUNNY     78  44  29 NW12G22   29.99F
AURORA         SUNNY     77  43  29 NW10G16   29.99F
HASTINGS       SUNNY     79  43  27 NW8       30.01F
HEBRON         SUNNY     80  42  26 NW7       29.98F
HOLDREGE       SUNNY     80  41  25 W8G18     30.02F
KEARNEY *      SUNNY     81  43  26 NW12G17   30.00F
YORK           SUNNY     77  45  31 N6        29.98F
$$

NEZ011>018-030>034-042>045-272000-
NORTHEAST NEBRASKA

CITY           SKY/WX    TMP DP  RH WIND       PRES   REMARKS
NORFOLK        SUNNY     76  42  29 W15       29.95F
ALBION         SUNNY     76  42  29 NW12G17   29.97F
BLAIR          SUNNY     75  42  31 NW14      29.95F
FREMONT        SUNNY     75  43  31 NW12      29.96F
TEKAMAH        SUNNY     76  39  26 W9        29.93F
WAYNE          SUNNY     74  45  35 W9        29.95F
$$

NEZ050>053-065>068-078-088>093-272000-
SOUTHEAST NEBRASKA

CITY           SKY/WX    TMP DP  RH WIND       PRES   REMARKS
LINCOLN        SUNNY     79  44  28 NW5       29.97F
OMAHA EPPLEY   SUNNY     77  42  28 W10       29.94F
BEATRICE       SUNNY     78  47  33 W9G17     29.97F
FALLS CITY     SUNNY     76  50  40 NW7       29.95F
NEBRASKA CITY  SUNNY     76  26  16 NW7       29.96F
PLATTSMOUTH    SUNNY     75  32  20 NW8       29.95F
$$

NEZ044-045-051>053-067-272000-
OMAHA AREA

CITY           SKY/WX    TMP DP  RH WIND       PRES   REMARKS
OMAHA EPPLEY   SUNNY     77  42  28 W10       29.94F
BLAIR          SUNNY     75  42  31 NW14      29.95F
FREMONT        SUNNY     75  43  31 NW12      29.96F
MILLARD        SUNNY     74  43  32 NW10      29.95F
OFFUTT AFB     SUNNY     74  43  32 W12       29.94F
PLATTSMOUTH    SUNNY     75  32  20 NW8       29.95F
WAHOO          FAIR      77  41  27 NW9       29.96F
$$



USA.gov is the U.S. government's official web portal to all federal, state and local government web resources and services.